RH
30 34 37 39 40 48 52 48 58 56 54 61 51 47 42 37 40 40 42 40 43 42 41 40 39 42 41 44 43 38 40 38 37 36 35 37 34 33 35 34 32 29 29 29 31 29 30 31 32 34 26 28 23 23 23 22 24 17 20 12 18 24 39 80 85 79 77 78 81 79 75 80 85 81 86 85 82 83 88 86 81 89 80 74 81 86 88 92 92 90 89 88 96 99 99 100 88
26 29 32 36 45 51 47 45 59 57 55 61 46 40 39 38 41 40 43 42 46 46 40 38 36 40 44 49 46 40 41 35 33 32 32 37 34 36 36 35 35 32 32 30 31 30 31 31 32 33 27 26 23 24 22 24 22 19 20 10 37 41 42 82 85 80 78 76 81 79 76 80 83 79 83 83 79 79 85 86 80 87 84 76 77 80 87 92 88 85 90 90 91 95 96 99 89
25 35 37 38 47 49 42 46 58 57 57 56 40 37 40 40 41 39 44 43 43 41 38 39 39 42 43 46 44 41 37 29 33 34 34 37 34 37 35 32 34 33 33 31 31 31 32 32 32 32 28 25 23 24 22 25 20 20 19 9 48 58 62 93 82 80 80 75 78 79 79 79 81 77 80 81 78 79 82 84 80 84 82 76 76 76 83 89 84 79 88 88 88 93 95 99 94
24 40 46 43 44 43 43 49 54 53 54 49 37 38 40 40 40 40 42 42 40 37 38 41 40 43 40 35 36 35 31 31 37 35 34 35 32 32 30 30 30 31 33 31 33 33 34 32 32 31 28 25 23 25 23 24 20 21 19 12 38 48 66 92 81 82 80 78 79 77 79 77 79 78 79 81 81 82 83 84 82 82 79 77 78 75 76 84 83 76 80 82 85 93 95 99 100
34 41 43 44 43 40 42 48 50 51 50 43 37 35 35 36 39 41 38 37 40 37 38 41 36 37 38 33 33 30 23 30 38 34 34 34 30 28 28 30 28 30 31 31 34 38 43 35 31 32 27 25 24 26 25 23 21 21 18 15 25 37 68 90 81 83 80 80 81 77 78 77 80 81 80 83 85 82 83 86 83 83 80 79 79 73 71 76 80 77 79 78 82 90 93 96 101
44 44 39 44 43 40 43 46 46 44 40 35 34 33 32 35 38 39 34 31 39 39 35 38 36 34 34 32 33 30 23 27 32 32 32 31 29 28 29 29 30 30 28 32 32 45 59 41 30 34 27 24 25 25 25 23 21 21 18 15 16 24 57 88 87 83 80 80 84 79 77 84 85 84 84 83 85 81 83 86 82 85 82 80 80 75 72 74 79 80 81 78 79 87 91 94 97
43 41 37 38 38 40 45 46 40 35 32 32 33 33 33 35 35 32 29 27 34 39 36 39 39 33 29 29 29 26 27 28 28 31 30 29 28 26 28 28 30 29 29 33 31 52 68 42 30 34 26 25 25 25 25 23 22 20 18 13 13 11 25 72 93 83 80 81 85 83 80 92 90 85 87 84 87 86 80 83 84 84 81 79 81 78 73 75 83 84 82 78 77 83 89 92 93
40 38 35 33 32 36 41 41 35 29 28 31 31 33 34 34 33 27 23 21 22 29 34 40 40 31 25 29 26 21 30 31 27 30 28 27 27 23 26 26 29 31 29 34 35 50 56 34 31 33 25 25 23 25 25 23 23 19 18 12 11 9 8 55 92 86 85 82 81 82 82 91 89 83 83 84 92 81 62 72 85 84 79 77 83 82 77 80 85 86 85 79 78 80 85 90 91
34 33 33 30 28 32 37 34 29 24 24 28 28 28 28 29 31 27 23 18 17 20 25 33 37 32 25 28 24 20 29 30 27 30 28 25 26 24 25 26 31 37 33 34 41 48 44 30 33 32 24 26 23 25 25 24 24 19 20 13 10 11 7 48 92 90 87 87 81 81 82 84 82 82 81 84 97 76 56 75 86 84 81 77 82 85 83 87 88 88 86 82 80 79 83 89 89
30 29 30 28 25 29 32 27 23 21 23 24 23 22 19 22 24 25 28 23 19 18 24 31 31 31 26 24 22 23 28 25 26 31 31 28 28 28 27 27 29 41 42 36 42 50 46 32 33 32 25 26 24 25 26 24 25 21 21 14 11 11 7 45 90 91 86 88 87 83 83 85 80 86 84 82 98 78 62 86 89 82 84 80 80 84 88 89 88 88 86 84 82 77 79 88 88
28 26 27 28 27 27 25 23 21 19 17 15 17 19 17 20 21 21 24 23 19 16 26 32 26 28 25 22 21 26 29 24 28 29 29 30 31 32 31 33 30 34 43 40 41 50 49 35 33 33 25 27 25 25 26 25 26 22 21 15 12 12 10 47 87 88 88 88 87 88 85 88 86 89 90 85 98 82 62 69 73 82 85 84 81 79 88 89 85 83 83 83 80 74 73 85 91
27 25 24 26 26 23 21 21 18 15 13 12 16 20 18 18 20 21 20 20 19 17 25 28 23 27 24 22 21 24 30 30 35 30 24 27 29 31 30 35 34 31 37 40 40 47 52 40 35 33 26 27 26 26 26 26 26 23 23 16 13 13 13 51 87 79 85 92 85 87 86 89 91 91 92 90 96 89 74 48 43 83 88 85 88 77 84 87 84 81 80 80 73 71 71 82 94
25 24 24 24 23 21 20 19 17 15 14 15 18 21 20 17 19 21 22 20 18 19 24 26 25 27 23 22 20 21 28 32 36 31 23 24 26 28 27 30 32 32 32 36 38 44 51 44 37 33 28 27 26 27 27 27 27 24 23 18 15 15 14 43 83 79 78 94 79 76 88 83 81 91 90 87 92 88 91 55 23 75 91 81 92 81 81 80 80 81 77 78 75 72 74 82 91
23 22 23 23 21 20 19 17 15 14 14 17 21 22 20 19 22 22 22 20 18 22 26 29 29 26 25 24 23 26 31 31 33 33 28 26 26 26 26 27 29 32 33 32 34 37 42 43 39 34 29 28 28 27 27 28 27 26 24 21 16 14 25 40 73 85 79 94 80 65 80 70 57 76 83 78 91 85 97 78 20 60 96 80 89 86 83 80 81 91 83 79 79 75 77 82 87
23 21 21 21 19 18 19 18 15 14 13 18 23 23 20 22 27 24 22 21 20 25 27 29 29 27 28 28 29 33 36 36 34 36 36 34 34 33 31 30 30 32 35 34 34 34 37 39 38 35 31 28 28 27 28 28 27 29 25 22 19 14 34 53 74 92 87 97 93 66 61 57 44 54 65 58 83 93 94 92 34 48 99 87 87 87 86 90 86 98 96 84 82 78 79 81 83
23 18 19 20 18 17 17 15 15 16 14 16 22 23 20 23 28 25 26 27 25 27 27 27 29 29 31 33 35 38 41 42 41 40 39 38 39 40 39 38 39 38 37 37 36 36 37 38 37 34 30 28 28 29 28 28 27 29 28 22 22 16 25 46 70 93 95 97 101 82 51 46 46 40 47 37 63 96 88 92 53 41 92 97 92 89 85 95 91 97 97 85 83 81 81 82 83
20 17 18 17 15 16 16 14 16 18 15 15 18 21 21 21 25 25 27 30 27 28 29 28 31 33 35 37 39 41 44 44 44 42 39 39 41 42 42 43 45 45 45 45 42 40 40 39 39 38 36 31 29 31 30 31 28 26 31 26 24 21 19 28 44 74 97 97 98 96 67 64 71 44 38 30 42 83 83 85 62 41 83 99 95 96 88 90 92 96 94 84 82 82 84 83 84
17 16 17 15 14 16 16 16 19 19 17 17 17 19 22 22 23 23 23 27 27 29 32 31 32 35 37 40 41 42 45 45 45 43 42 44 45 46 45 46 46 47 48 50 51 51 53 49 44 44 44 41 34 35 33 31 35 31 29 28 28 26 23 25 25 52 91 98 92 97 89 90 98 65 42 32 29 60 74 71 59 51 83 96 92 96 92 94 94 93 95 90 87 88 87 85 87
15 14 15 15 16 17 18 18 19 19 19 19 18 19 23 25 25 23 23 27 30 32 35 34 33 35 37 39 41 42 45 46 46 46 47 48 49 50 49 51 51 52 53 53 55 56 61 62 57 54 54 55 51 47 41 32 35 39 35 29 30 30 26 27 22 43 82 97 95 96 99 94 97 89 64 42 27 41 56 54 51 50 68 84 90 94 93 98 96 90 94 93 91 93 89 88 91
15 15 16 19 16 16 20 19 18 21 21 19 17 20 24 25 25 24 24 27 31 34 35 35 33 34 35 38 40 42 44 46 47 47 47 49 50 52 52 54 56 57 58 57 59 57 59 61 62 64 64 66 66 61 57 49 38 40 51 40 29 31 29 27 25 39 61 85 100 95 97 93 88 95 87 63 38 33 42 41 44 44 43 53 72 87 90 97 99 93 93 93 93 92 89 87 80
17 17 17 18 15 15 22 20 20 23 22 21 20 21 24 25 27 26 25 28 32 35 36 36 34 33 33 35 38 39 42 44 46 47 46 48 49 51 52 54 58 57 56 54 56 59 60 60 60 63 65 68 71 67 66 68 62 58 66 61 44 37 32 29 28 32 39 65 97 92 87 93 88 88 92 85 57 35 38 37 38 40 36 33 41 53 62 79 91 94 97 97 95 89 89 83 58
18 18 18 19 16 17 22 20 22 25 22 23 24 24 25 25 27 28 28 31 34 35 36 36 34 32 31 32 34 35 38 41 43 45 44 46 47 50 51 52 55 56 56 55 55 56 57 60 60 60 63 66 68 68 67 69 77 78 75 75 72 63 51 40 32 32 34 47 77 89 83 86 91 86 84 94 76 43 38 39 36 38 37 34 32 31 37 51 62 79 94 96 95 87 86 80 51
20 20 19 20 19 19 21 21 24 27 23 25 27 27 26 24 26 28 29 32 33 35 36 35 33 31 31 30 31 32 33 36 37 39 40 40 41 44 48 50 52 53 55 56 57 56 54 57 58 60 61 64 66 66 68 66 71 80 80 81 83 82 77 67 54 41 34 37 55 79 88 83 86 88 82 93 86 49 36 39 36 38 37 36 36 34 36 41 45 59 78 88 93 84 73 67 47
23 23 20 21 21 19 19 22 25 25 23 25 27 26 25 24 26 27 28 30 31 33 33 32 31 28 28 29 30 32 32 33 33 35 36 35 35 36 39 42 44 44 45 46 49 52 52 54 54 58 60 61 65 64 67 69 68 73 78 83 83 84 84 82 79 62 51 50 49 62 83 86 82 84 82 91 88 51 35 39 35 38 38 36 38 37 36 41 46 52 65 80 84 72 58 49 35
25 24 20 19 18 17 17 22 23 23 23 24 25 24 24 24 26 27 28 30 29 30 29 28 27 26 27 28 30 31 31 33 33 34 35 34 34 33 34 35 36 34 34 33 32 36 41 46 49 53 57 58 61 63 65 68 71 71 75 81 82 84 81 80 84 78 75 72 63 60 71 82 81 83 82 89 91 53 34 40 37 38 38 38 39 38 37 38 46 53 62 68 63 54 46 37 29
28 27 22 16 13 15 18 20 21 22 22 21 23 24 24 25 26 27 29 31 29 28 28 27 26 25 27 28 30 30 31 33 33 34 34 36 35 35 34 34 35 33 32 30 26 25 25 29 37 43 48 52 56 61 65 66 70 70 72 75 78 83 83 82 83 81 82 79 79 75 64 70 79 84 83 90 93 58 35 40 37 38 39 39 39 38 40 38 41 48 52 50 45 41 35 31 27
31 30 22 15 13 15 16 18 19 22 23 20 21 23 25 27 27 27 30 32 30 27 26 27 26 26 27 28 30 30 31 33 33 34 34 35 36 36 37 36 37 36 33 30 26 25 20 15 21 30 35 43 47 52 59 64 68 68 69 72 73 79 81 82 83 82 84 81 84 83 68 69 78 83 84 88 87 56 38 41 38 39 39 39 40 39 40 40 40 41 42 41 39 37 32 30 29
31 28 24 18 15 15 14 16 17 20 22 22 21 22 25 27 28 28 30 32 29 26 26 27 26 26 27 28 30 31 31 32 33 34 33 35 37 37 38 38 40 38 34 30 25 23 21 13 12 17 21 29 36 41 48 55 63 67 69 72 72 74 79 81 82 81 83 82 81 81 78 78 80 82 80 75 72 54 42 41 39 40 40 39 40 39 40 40 40 39 39 39 37 36 32 30 29
27 24 25 18 15 16 14 14 17 17 18 22 23 24 27 28 29 29 31 31 27 25 25 25 26 27 28 28 29 30 31 31 32 34 34 35 37 37 38 40 41 41 38 34 26 24 25 18 12 12 12 15 22 30 38 45 53 61 66 71 73 73 77 79 80 80 81 80 78 78 79 81 84 87 81 71 68 66 59 50 43 41 40 41 40 39 40 39 39 37 37 38 37 36 33 29 29
22 22 22 15 15 19 16 16 16 16 17 23 24 23 27 28 27 30 31 30 26 24 24 25 26 26 28 28 28 29 31 32 32 33 35 36 36 37 39 41 43 43 43 40 30 27 30 24 16 14 13 11 12 17 25 33 42 53 60 66 70 73 77 77 77 80 80 79 79 79 78 81 87 89 86 82 77 73 69 60 51 44 41 42 41 40 40 39 39 36 36 37 38 37 36 33 32
21 24 20 11 12 14 17 20 16 15 18 21 22 20 27 29 27 29 31 29 25 23 24 25 26 26 27 28 27 28 30 32 32 33 34 36 37 38 41 42 43 44 44 45 39 33 34 30 21 17 15 13 12 11 13 20 29 40 51 58 61 65 71 76 78 80 79 79 79 79 80 83 90 86 76 81 84 74 67 63 54 46 42 41 41 41 40 39 39 37 37 38 38 38 37 35 34
16 19 17 12 12 11 16 23 20 19 18 19 20 17 24 29 27 29 30 28 25 24 24 25 26 27 27 27 27 27 30 32 32 33 33 35 36 35 39 41 42 42 41 45 45 41 39 37 30 23 18 16 15 14 12 12 15 23 36 48 55 58 63 71 77 79 79 80 79 78 79 81 88 89 79 79 77 63 57 57 55 50 44 40 40 39 38 39 39 38 38 38 39 38 37 37 36
11 14 15 14 15 13 15 21 25 23 19 20 21 18 22 28 27 28 29 28 25 25 25 26 27 28 28 28 28 28 30 32 32 32 32 34 35 35 36 37 38 37 38 41 44 46 44 41 40 33 26 24 21 19 16 12 11 12 17 29 44 56 65 69 71 75 78 80 81 79 80 79 82 88 92 93 83 69 61 55 53 55 50 44 40 36 36 36 37 38 38 38 38 39 38 37 37
15 16 13 12 14 15 14 18 25 25 21 21 22 21 23 25 27 27 28 28 26 25 25 26 27 28 29 28 29 30 30 32 33 33 33 33 34 34 34 36 37 36 36 36 37 42 45 44 45 41 37 37 31 28 25 19 15 15 13 14 25 40 57 67 67 67 72 77 80 81 80 81 81 83 90 96 93 87 81 71 64 62 57 50 44 39 37 35 36 36 36 37 36 37 38 38 37
27 24 17 16 18 19 16 15 24 28 24 22 19 22 24 25 26 26 28 28 25 26 26 27 27 27 29 30 30 31 31 33 34 33 33 32 31 30 31 32 34 33 35 37 36 38 40 43 47 47 45 46 43 42 40 32 25 25 23 17 18 25 39 56 60 61 70 76 78 81 81 82 83 83 87 94 94 92 90 85 81 77 69 61 53 48 44 41 40 38 37 36 35 35 36 36 35
34 32 29 29 23 20 15 12 26 33 26 21 16 18 22 24 26 25 27 27 25 26 26 27 27 27 29 31 32 33 33 34 34 33 32 31 30 29 29 29 29 28 30 34 36 38 39 39 44 50 51 50 49 51 50 45 41 42 39 34 34 36 38 44 50 56 66 70 69 70 72 77 82 83 83 87 91 92 91 89 86 85 83 76 67 58 53 50 46 44 42 38 37 36 34 32 30
36 35 31 27 19 16 11 12 28 33 26 20 14 18 22 23 25 25 26 26 25 26 27 28 28 29 30 32 34 34 34 35 34 33 32 31 30 30 30 29 28 28 28 30 32 35 38 40 43 47 50 52 53 55 57 56 56 57 55 53 55 60 55 47 54 63 63 60 60 60 59 63 71 77 79 78 80 84 88 90 87 84 83 84 80 70 63 60 56 53 51 47 43 41 38 33 30
39 33 21 15 15 14 10 17 29 28 30 26 17 21 25 23 25 25 26 25 24 26 28 30 30 31 32 32 34 34 33 35 35 33 31 30 31 30 29 28 26 25 25 26 27 30 34 39 44 46 48 51 53 56 62 62 61 63 64 61 62 69 69 62 69 74 64 59 61 62 62 60 60 66 73 78 82 83 84 88 89 85 81 82 84 81 75 70 67 64 60 57 52 48 44 38 33
34 23 16 15 16 15 13 23 30 25 30 29 20 26 25 20 25 26 25 25 26 31 32 32 33 32 33 32 34 35 34 34 35 33 32 30 30 29 28 28 27 26 24 23 24 27 32 36 41 46 49 51 52 53 59 61 60 63 68 69 66 67 70 70 75 76 71 73 72 66 64 63 62 63 65 72 81 86 84 83 86 86 83 82 82 83 82 78 75 73 69 65 60 55 51 45 38
24 17 16 19 17 18 18 21 25 22 25 27 28 35 27 20 28 28 26 28 29 33 34 35 36 35 36 35 34 36 35 34 33 32 31 31 30 30 29 29 28 28 27 25 24 26 31 36 39 45 49 51 52 52 56 58 57 59 64 70 73 70 70 71 75 75 74 76 76 75 73 68 66 66 65 67 70 78 83 82 83 85 85 86 85 83 83 80 77 77 75 72 67 62 58 52 46
20 21 20 21 18 19 19 18 21 20 25 38 40 33 22 22 33 32 28 31 31 32 33 33 35 36 37 37 36 36 36 34 33 32 31 31 31 31 31 31 30 28 28 27 28 28 31 37 41 44 48 50 50 51 53 54 52 51 52 56 64 67 70 72 74 73 72 72 74 78 78 74 72 71 69 69 68 70 76 80 83 87 86 86 86 85 82 78 76 77 77 76 73 69 64 58 53
18 24 21 20 19 20 22 23 23 18 21 38 39 24 15 20 30 33 32 33 31 32 33 33 34 35 37 38 37 37 36 33 32 33 33 32 32 33 32 29 27 25 24 26 29 31 33 38 43 46 48 49 49 50 51 51 49 47 47 49 53 59 64 69 73 74 74 75 77 77 75 76 80 80 74 72 72 71 72 76 82 85 84 85 87 85 81 76 74 75 76 76 76 73 68 63 58
17 22 22 21 22 24 27 25 25 21 17 25 30 25 20 17 19 28 35 34 32 32 34 34 35 36 37 38 38 38 38 36 35 35 35 34 31 30 28 26 24 23 25 28 29 31 34 38 44 47 47 45 46 48 49 52 51 48 48 51 53 58 61 64 70 73 74 77 79 80 80 81 84 88 85 77 74 76 76 76 78 82 84 86 88 88 84 78 73 74 75 75 75 73 70 65 60
22 20 21 21 21 24 24 25 27 22 16 20 26 29 28 21 18 27 35 33 32 34 34 35 36 37 37 37 38 37 36 36 38 38 36 34 32 29 27 26 24 25 28 31 32 34 35 39 45 47 46 46 47 49 48 51 54 52 52 53 53 58 62 65 68 70 75 81 85 84 83 85 86 84 84 80 74 73 77 79 77 80 84 85 87 90 89 83 77 75 74 74 74 73 71 66 61
21 19 25 25 27 30 26 26 26 20 20 22 20 21 22 18 15 25 36 35 34 37 37 36 36 37 38 37 36 34 31 32 36 37 34 32 30 28 27 26 26 28 32 36 38 40 41 43 47 49 49 49 48 49 49 50 54 55 55 55 55 57 60 65 69 72 76 81 87 90 88 89 90 85 82 85 85 78 74 79 81 80 82 84 86 88 89 88 83 78 76 74 73 72 70 68 62
21 22 27 27 29 32 29 27 23 19 22 21 14 11 15 18 14 16 30 37 36 38 38 36 36 38 37 35 33 29 26 27 30 31 29 25 24 24 24 25 29 33 37 40 42 44 45 45 49 52 52 51 49 49 50 52 54 56 56 57 58 58 60 62 65 69 74 77 84 93 94 93 93 90 84 81 85 85 76 74 80 82 84 85 85 87 89 89 85 81 79 76 73 70 68 68 66
25 22 20 20 17 17 20 21 17 18 20 17 12 9 15 24 17 15 32 45 44 43 41 37 37 37 36 31 28 25 21 22 25 25 24 23 23 23 22 24 30 36 38 40 43 45 45 46 50 54 54 53 52 51 52 54 56 58 59 59 59 59 61 63 64 67 70 73 78 84 92 97 92 87 85 76 69 74 76 73 73 78 86 90 89 88 89 88 85 82 81 79 76 73 69 68 68
23 18 16 18 15 10 13 14 14 21 22 15 11 11 19 25 21 25 43 51 48 46 43 39 36 34 32 29 25 22 20 21 22 23 23 22 23 24 26 30 35 40 42 42 44 45 46 49 52 56 58 56 54 53 55 57 59 61 61 61 62 63 64 64 64 67 69 72 76 78 84 94 94 89 90 84 69 64 68 73 75 75 80 89 94 94 92 90 88 85 83 82 80 78 75 72 70
17 18 19 23 22 20 22 21 22 24 20 15 12 16 24 23 22 31 40 42 42 43 39 34 32 30 27 24 23 22 21 20 21 21 21 21 24 27 31 36 40 43 44 44 45 46 48 50 52 58 62 60 56 55 57 60 62 64 64 64 65 66 68 68 67 68 70 71 74 78 81 88 92 91 92 91 83 74 66 64 71 76 78 83 91 97 97 94 91 89 86 85 83 81 79 77 74
19 21 23 27 30 36 39 32 28 27 22 18 14 21 28 22 24 34 34 34 39 39 34 30 29 28 25 22 22 21 19 19 19 19 20 24 29 32 35 39 42 44 45 46 46 47 49 50 53 61 65 61 56 54 56 61 65 67 69 68 68 69 70 71 70 70 72 73 74 76 79 83 87 89 91 92 93 92 83 71 65 68 74 78 83 90 96 98 96 93 90 87 87 85 82 81 79
22 19 21 25 27 37 43 35 34 37 32 25 22 27 30 26 30 35 32 34 37 33 30 28 27 24 22 21 21 20 18 17 17 19 24 30 33 35 38 41 43 44 46 47 48 49 49 49 54 64 68 62 56 55 57 63 67 70 73 71 71 73 74 74 74 73 73 74 75 75 77 81 83 84 86 88 91 95 97 92 78 65 64 70 75 80 87 95 99 98 96 92 90 88 86 84 83
18 15 21 25 22 29 36 33 33 38 37 33 28 26 21 20 30 37 35 34 30 27 27 26 24 22 21 20 19 19 17 16 18 23 28 33 35 38 40 41 44 45 47 48 49 50 50 52 60 69 68 60 56 57 60 64 68 72 75 75 75 76 78 78 77 77 76 75 76 77 77 78 79 82 85 87 90 93 96 100 95 80 65 61 65 71 76 83 92 97 99 98 95 92 90 87 85
17 19 26 25 22 28 35 34 28 28 35 32 25 25 20 18 28 35 35 31 22 21 25 23 20 21 22 21 17 16 17 19 24 27 30 33 36 39 41 43 45 46 48 51 54 58 63 71 76 73 65 59 59 61 64 68 72 75 76 75 76 79 81 82 81 80 80 78 78 79 79 79 81 83 87 89 91 95 96 98 101 96 82 65 57 63 70 75 83 91 95 98 99 97 96 93 90
23 28 30 24 24 28 30 33 33 36 43 35 26 32 32 29 32 29 26 28 24 21 22 20 18 20 21 20 17 17 19 22 26 28 29 31 33 37 40 43 46 50 56 62 65 69 71 74 73 65 60 61 63 66 69 73 77 78 76 75 76 80 83 84 84 83 83 82 82 83 83 84 85 86 88 90 92 95 97 98 99 100 95 78 59 57 66 74 79 84 89 95 100 100 99 97 94
29 31 30 28 34 36 30 34 45 55 60 49 37 37 37 33 31 28 28 29 25 21 19 17 19 21 22 22 20 20 21 22 25 26 27 29 33 37 41 47 56 64 69 67 65 64 62 61 60 59 61 65 67 68 71 74 76 75 74 75 79 84 86 85 85 85 85 85 84 85 86 87 88 89 91 91 93 94 95 97 99 99 100 91 74 62 64 75 82 81 82 88 95 99 100 99 96
30 28 28 30 35 38 36 37 47 60 65 59 53 49 40 29 26 29 32 27 22 21 20 18 20 22 24 24 23 22 22 23 25 25 27 32 37 41 50 64 73 74 70 64 62 62 62 63 64 65 67 67 67 68 68 71 73 74 74 77 82 87 87 85 85 86 85 85 86 86 87 89 90 91 93 94 96 97 96 96 97 98 100 99 93 82 73 78 86 85 81 81 83 92 99 98 98
27 29 35 38 38 38 38 36 37 48 58 59 62 61 43 27 26 29 27 23 20 19 18 18 21 24 25 24 22 21 21 23 24 26 32 36 39 51 68 78 76 69 63 63 66 69 70 70 73 78 77 73 73 74 73 75 74 73 74 77 83 90 90 85 85 88 88 85 85 86 86 89 91 92 94 97 98 99 97 96 97 98 98 99 100 99 89 85 83 77 75 78 79 87 96 96 98
27 34 39 40 43 46 48 45 34 34 46 51 60 70 53 29 23 24 22 20 18 16 19 23 24 23 24 24 22 21 22 25 27 32 37 37 45 66 79 75 67 65 67 69 71 74 77 77 80 83 78 71 72 73 71 73 77 78 78 77 82 87 90 91 88 88 91 88 84 85 86 88 92 94 95 98 100 100 99 98 99 98 98 97 99 101 99 96 86 69 63 71 78 88 96 98 99
Wind_Speed
8 8 7 6 5 5 7 8 6 5 6 9 8 8 7 2 3 5 7 7 3 3 7 5 4 3 5 6 8 11 10 11 11 10 7 8 13 15 15 13 9 9 9 10 12 12 14 17 18 18 18 17 15 13 11 10 10 10 10 10 10 12 15 14 13 15 14 12 14 14 11 12 13 12 13 12 12 11 11 11 11 11 11 12 12 10 11 10 8 8 7 6 6 5 5 4 5
6 6 6 5 5 7 9 8 6 5 7 9 8 8 4 3 3 7 7 5 4 4 4 5 6 5 7 8 10 11 10 15 17 16 11 14 19 17 17 15 11 11 11 12 14 14 15 18 19 18 18 17 15 13 12 11 11 11 10 10 10 12 14 13 13 15 15 12 13 14 13 13 13 12 13 13 12 12 12 12 11 11 12 14 12 10 11 11 8 8 8 7 6 5 5 4 5
5 4 5 5 7 9 8 6 6 7 8 9 8 3 2 2 6 6 6 8 6 5 5 6 6 5 6 7 8 8 10 14 13 12 11 11 11 10 14 14 12 10 11 12 14 15 16 20 19 19 19 17 15 13 12 12 11 11 10 10 11 12 13 13 14 14 15 15 14 13 13 13 13 14 13 13 13 13 12 12 11 12 12 13 13 11 10 10 9 9 8 7 7 6 5 5 5
5 6 7 7 8 9 7 6 7 8 8 8 7 1 4 5 5 5 8 8 6 7 6 6 5 2 4 9 9 8 11 12 6 5 7 8 10 12 15 14 12 10 12 13 14 16 18 20 20 19 19 18 16 14 13 12 12 11 10 10 11 12 13 15 14 14 15 16 15 13 12 14 13 14 13 13 14 12 12 12 11 12 12 12 12 12 11 10 9 10 9 8 8 7 6 5 5
4 6 9 9 8 5 5 6 6 8 8 7 7 2 4 6 6 6 9 9 7 7 6 5 4 2 6 10 7 6 9 10 6 7 7 9 15 16 16 16 15 11 12 14 14 16 18 20 20 20 20 18 16 14 14 13 13 12 11 12 12 12 14 15 14 15 15 15 16 14 13 15 14 14 14 14 13 12 12 12 12 12 12 13 13 13 13 12 10 11 10 10 9 8 7 5 4
2 5 7 9 8 4 5 6 7 8 9 9 9 6 4 6 7 7 11 11 5 4 4 3 4 6 8 8 7 9 10 11 9 11 11 12 16 17 17 17 15 12 13 15 15 16 18 21 20 20 20 18 16 15 14 13 13 12 12 13 13 13 15 15 15 15 15 16 16 15 16 16 15 15 15 14 14 13 13 12 12 12 12 13 14 13 13 13 12 12 11 10 9 8 7 6 5
2 6 6 8 7 4 7 8 9 8 5 4 7 8 7 9 9 10 11 10 3 2 3 1 4 6 8 6 6 11 10 10 10 12 14 14 16 17 16 16 15 13 13 15 16 16 18 21 20 21 20 18 16 15 15 14 14 13 13 14 14 15 16 16 16 16 16 17 17 16 17 15 15 15 14 14 14 14 14 13 12 12 12 12 14 14 13 14 13 12 12 11 10 9 8 6 6
4 5 4 6 5 5 7 9 9 9 3 3 6 6 8 9 10 10 9 9 5 3 3 1 3 5 7 6 7 11 6 8 11 12 15 14 15 15 14 15 13 12 13 15 16 17 20 22 20 21 21 19 16 16 16 15 14 14 14 15 16 16 17 17 16 17 16 16 16 16 17 16 16 15 14 14 13 14 15 13 13 13 12 13 13 14 14 14 13 12 12 12 11 10 10 7 5
4 5 3 4 6 5 6 8 8 9 6 4 6 5 7 8 8 7 7 10 8 9 8 3 3 5 8 9 13 13 4 8 13 12 15 15 16 16 15 14 11 11 13 14 15 18 21 22 20 22 21 19 17 17 17 16 16 16 16 17 18 18 19 18 16 17 17 16 16 17 17 17 16 16 15 14 14 15 14 13 13 13 13 13 13 14 14 14 13 13 12 12 12 11 11 9 6
4 5 3 4 6 6 6 7 6 4 2 4 4 6 9 9 8 5 6 10 10 12 8 5 5 7 10 13 14 10 5 11 11 13 17 18 19 18 18 18 12 9 13 14 15 17 21 21 21 23 21 19 18 18 17 17 17 17 17 18 19 19 20 19 17 18 17 17 17 17 17 16 16 16 16 15 15 15 14 14 14 14 13 14 13 13 14 14 13 12 12 12 12 11 12 12 8
4 4 3 4 5 6 5 4 5 2 4 3 5 12 11 9 8 7 9 10 13 14 6 6 6 8 13 12 10 4 2 9 14 20 23 21 21 19 18 18 16 11 12 15 15 16 20 22 21 23 21 20 19 19 18 17 17 17 17 18 20 20 20 19 18 19 19 19 18 17 17 17 17 17 17 16 16 15 15 16 16 15 14 14 14 14 14 13 13 12 12 12 12 11 12 13 11
4 2 3 5 4 5 4 5 6 6 8 4 8 13 10 11 8 9 12 12 14 12 8 11 11 11 11 8 8 3 8 15 25 29 25 22 22 19 17 14 16 13 12 14 16 16 19 21 22 23 22 21 20 19 18 18 18 17 18 18 20 19 20 20 19 19 20 21 21 20 19 18 18 18 18 17 16 16 16 17 17 15 14 15 14 15 15 14 13 13 13 13 13 13 13 15 12
4 3 3 5 4 5 5 6 5 6 6 6 9 10 11 11 9 11 11 12 12 10 11 13 14 11 8 8 9 8 16 24 28 30 27 23 21 18 16 12 12 12 12 14 16 16 18 21 23 24 23 22 21 20 19 19 18 18 18 18 19 19 19 20 19 19 20 20 21 22 21 22 21 19 19 18 17 17 16 17 17 16 15 15 14 15 15 14 15 15 15 14 14 14 15 17 14
4 4 4 5 3 5 5 5 4 6 3 9 9 11 13 8 7 12 10 11 10 12 11 10 15 11 9 12 12 21 30 30 28 29 28 23 20 17 14 11 9 9 11 12 14 15 17 21 23 24 24 23 21 21 21 20 19 18 18 19 20 19 19 20 20 19 20 19 20 22 22 21 20 18 18 18 18 18 17 16 17 17 15 16 15 15 15 15 16 16 15 14 15 15 15 17 15
6 4 4 5 4 4 1 2 4 5 2 9 6 9 14 6 4 11 9 9 8 12 10 10 17 10 11 15 14 26 31 31 28 23 21 18 19 18 16 13 10 9 10 11 14 15 16 20 24 26 25 25 24 23 22 21 20 19 19 20 21 21 20 20 20 19 20 20 20 22 23 21 19 19 17 18 19 18 17 16 17 17 15 16 16 16 16 16 17 15 15 14 15 16 15 16 16
5 6 4 4 5 3 3 4 4 4 4 8 4 7 13 5 4 8 7 6 5 14 16 16 20 14 16 18 17 24 24 25 23 17 15 11 12 15 17 17 15 14 13 13 14 15 17 20 23 27 27 27 25 24 24 22 21 20 20 21 22 22 22 21 20 20 20 22 23 22 24 22 19 20 18 18 18 17 16 15 17 18 16 16 16 16 15 15 16 15 14 14 15 16 16 18 20
5 6 4 5 4 3 5 7 6 6 8 10 11 11 12 8 7 9 5 3 7 17 21 18 20 20 19 18 18 21 22 24 22 19 16 12 13 13 13 14 13 14 14 15 15 16 17 20 24 27 28 28 27 26 25 25 24 22 22 22 23 23 23 23 23 22 22 23 25 25 23 20 18 20 20 19 18 18 18 17 16 17 17 17 16 15 15 15 15 16 15 15 16 17 20 25 24
5 4 4 4 3 5 7 8 7 8 10 11 14 12 9 10 11 11 6 8 13 17 20 17 18 21 20 19 20 21 23 26 27 26 25 22 21 19 17 16 14 14 13 13 14 16 16 18 23 26 27 27 28 28 28 27 26 24 24 24 24 25 25 24 25 24 22 22 24 26 23 17 17 20 21 20 19 21 22 20 17 17 17 17 17 16 17 16 16 16 15 16 16 18 23 24 21
4 4 4 2 5 6 7 8 8 9 10 11 12 10 10 11 12 10 6 13 17 15 17 18 18 21 21 22 22 23 25 28 31 32 32 30 27 25 23 20 19 17 15 14 13 13 13 15 18 23 25 25 24 25 28 30 28 25 24 25 26 27 27 27 27 25 21 21 22 23 20 18 18 18 20 21 20 21 23 22 19 17 17 18 18 17 17 16 16 16 15 17 16 18 21 17 15
2 3 3 4 7 5 8 10 10 9 9 10 10 7 10 13 13 9 4 11 17 15 14 16 18 21 21 22 22 23 25 27 30 32 33 32 29 27 25 24 22 19 16 14 13 13 13 13 15 17 20 23 23 23 25 28 31 28 23 24 28 29 29 30 29 27 24 21 20 20 20 21 22 18 19 22 22 23 23 23 22 20 18 18 20 20 19 18 17 17 18 18 16 19 21 17 17
1 3 3 7 8 5 8 9 9 9 8 9 9 5 8 13 16 14 7 7 11 13 14 15 16 18 19 20 21 22 24 26 28 31 32 32 30 28 26 25 24 22 18 13 11 11 11 11 12 14 15 18 21 23 24 24 26 27 24 24 28 30 31 31 31 30 29 25 20 20 22 23 22 20 19 19 23 25 24 24 23 22 21 20 21 22 22 22 19 18 18 17 18 21 21 19 18
2 3 6 8 8 5 6 8 7 8 8 7 6 6 7 10 16 18 14 9 8 9 11 13 14 16 17 19 20 22 24 25 26 28 30 30 30 27 26 25 25 27 26 22 18 13 9 7 9 12 13 15 17 20 22 23 22 22 24 24 25 28 30 32 33 33 32 29 23 21 23 23 20 20 20 19 22 27 27 25 24 23 23 23 23 23 23 24 23 22 20 17 19 22 21 21 20
2 5 7 6 7 5 4 5 5 7 9 8 6 7 9 12 13 15 18 14 9 9 9 10 12 14 15 17 19 22 24 24 25 25 27 29 29 28 26 26 26 27 28 28 28 24 18 11 8 8 10 13 15 18 19 21 22 21 23 23 24 25 26 28 31 34 35 34 28 23 24 24 20 20 22 20 22 29 30 26 25 24 25 25 25 25 24 24 23 24 24 22 22 23 22 22 23
2 4 6 5 3 4 3 2 4 7 9 9 7 8 10 12 11 12 16 13 9 8 8 8 10 12 14 17 19 21 22 23 23 23 23 26 28 28 27 27 27 29 30 30 30 30 28 23 16 10 8 9 11 14 16 18 19 21 22 23 24 25 26 27 28 32 34 35 34 29 25 23 23 22 23 22 22 30 32 29 28 27 26 26 26 27 25 25 25 24 24 25 27 27 25 24 24
3 3 3 2 2 3 2 1 5 7 8 8 10 11 11 14 13 12 12 9 8 7 6 7 9 11 13 16 18 19 20 21 22 22 22 23 25 27 28 27 28 30 31 32 34 33 31 30 26 20 14 10 8 10 12 14 15 17 20 22 24 25 28 28 27 29 29 32 33 32 30 27 27 28 25 24 24 32 34 32 31 30 29 28 28 28 27 27 27 26 26 27 30 30 28 27 25
3 2 2 4 4 3 2 3 5 7 7 6 8 10 9 11 10 10 10 7 7 6 6 7 7 10 12 14 16 17 19 20 20 21 21 21 23 27 28 28 27 29 30 30 33 33 33 32 30 28 25 19 13 10 10 12 13 15 17 19 22 24 27 28 28 28 28 29 30 31 34 32 31 31 28 24 25 34 37 35 35 33 32 31 30 30 29 29 29 29 29 30 30 29 29 28 26
2 2 4 5 5 5 3 3 4 5 6 4 6 8 7 4 1 4 8 5 5 5 6 6 6 9 11 13 15 16 18 19 19 20 22 23 24 26 27 29 27 26 29 31 32 32 32 34 32 30 29 27 24 18 14 12 12 14 15 16 18 20 24 27 28 29 29 29 29 30 33 32 31 32 30 27 29 37 39 37 37 36 35 34 33 32 31 31 31 31 31 31 31 30 30 29 28
3 4 5 6 3 4 4 3 3 2 5 4 6 8 7 5 3 4 5 3 3 4 5 6 7 8 9 11 13 15 17 18 19 21 23 23 23 25 26 28 27 26 29 32 34 33 33 35 33 31 30 28 27 25 22 18 14 13 14 15 16 17 20 23 26 28 30 30 30 30 30 29 31 32 35 36 36 40 42 40 40 39 38 36 35 34 33 33 33 33 33 32 32 31 30 31 30
4 6 5 7 8 2 3 5 4 2 3 4 5 5 4 5 6 5 4 2 2 3 5 5 6 7 8 10 11 14 16 18 20 21 22 22 21 23 24 26 26 26 29 31 35 35 33 37 37 34 32 29 27 26 24 23 20 16 14 13 14 16 17 19 22 25 27 29 31 31 30 29 30 30 33 38 38 38 40 42 42 41 40 39 38 37 36 35 35 35 35 34 33 33 32 32 32
3 4 4 2 6 4 3 4 6 2 2 3 3 4 2 6 6 5 4 2 3 4 5 5 6 7 8 9 10 12 15 18 20 21 21 21 21 21 23 25 25 25 26 29 35 36 32 35 38 37 36 33 30 27 24 23 21 19 17 14 13 15 16 17 19 21 23 26 28 30 31 31 30 28 28 31 33 36 39 41 43 43 42 41 41 40 39 38 37 38 38 37 35 34 34 33 33
1 1 2 3 2 1 4 3 7 3 2 4 5 6 1 7 6 5 4 2 3 3 5 5 6 7 7 8 9 11 14 16 19 20 21 21 22 22 23 24 25 24 25 27 31 34 31 32 37 38 38 37 35 31 27 24 21 19 17 17 15 14 15 16 18 19 21 22 23 26 29 30 29 30 32 31 31 36 41 42 44 45 44 43 43 42 42 41 40 40 39 38 36 36 35 34 34
3 2 2 5 5 6 3 4 3 5 5 7 6 5 2 7 6 6 4 2 3 3 4 5 6 7 7 8 10 11 12 15 17 20 21 21 23 23 23 25 25 24 25 25 27 30 28 29 34 37 37 37 36 35 33 29 25 21 18 16 16 16 15 15 16 17 19 20 21 23 25 27 27 28 32 34 36 42 45 45 45 46 46 46 46 45 45 43 43 42 41 40 38 37 36 36 36
5 5 5 7 7 7 5 3 3 7 9 7 3 4 1 6 7 6 4 3 3 2 3 4 5 6 7 8 9 11 12 14 17 20 22 21 23 24 24 25 25 24 25 25 25 27 26 27 29 33 35 35 34 34 35 34 30 26 22 19 16 14 14 14 14 15 17 18 19 21 22 24 25 25 26 29 33 39 44 47 47 46 47 48 48 48 47 46 45 44 43 43 41 39 38 38 37
5 6 6 7 9 8 7 3 3 8 10 9 6 5 2 6 8 6 5 3 3 2 3 3 4 5 7 8 9 11 12 15 17 19 22 22 23 25 24 24 23 23 25 26 26 25 25 25 25 28 30 29 31 31 32 34 33 30 26 24 20 16 13 12 13 14 15 16 17 20 22 23 24 25 24 24 26 30 34 40 44 45 47 49 49 50 49 48 47 47 46 45 44 42 41 40 40
6 8 7 7 9 8 10 9 6 9 10 12 10 7 2 7 8 7 6 4 4 3 2 2 4 5 6 8 9 10 12 14 17 18 20 21 22 24 22 22 23 25 26 26 26 24 24 25 24 25 24 23 26 26 27 30 30 29 28 27 24 21 18 15 14 13 12 13 14 17 19 22 23 24 23 22 23 26 27 31 36 39 43 47 50 50 49 49 49 49 48 47 46 44 43 43 42
8 8 7 8 10 7 11 12 7 8 10 12 11 9 5 5 8 7 7 5 4 4 3 3 3 4 5 7 8 10 11 13 15 16 18 18 20 22 23 23 24 26 27 26 26 25 24 26 24 23 21 20 22 21 23 26 26 25 26 26 24 23 21 20 18 15 13 13 14 15 16 18 21 23 25 22 22 24 25 26 29 32 34 40 47 49 49 50 51 50 50 49 47 46 45 44 42
7 8 7 9 10 8 14 14 4 6 7 11 12 11 9 5 8 8 8 7 5 4 3 3 3 4 5 6 8 10 11 12 14 15 17 18 20 23 24 25 27 28 28 27 27 26 26 26 24 22 21 20 20 20 20 22 21 20 21 22 21 20 21 22 21 18 17 17 16 16 16 16 17 20 24 24 24 25 25 24 26 29 30 33 39 45 47 48 48 49 48 48 48 48 47 45 43
5 5 7 9 9 11 16 11 2 3 4 10 14 10 9 7 9 9 9 9 6 5 3 3 3 4 4 6 8 10 11 12 15 17 19 21 23 25 26 27 29 30 31 30 28 27 27 25 22 21 21 21 20 19 18 19 18 19 21 21 19 19 20 21 19 19 22 22 19 18 17 16 16 17 19 22 23 24 26 25 24 26 28 30 33 37 41 43 44 46 47 46 47 48 46 45 45
5 4 7 8 9 12 13 5 1 3 4 10 14 9 10 8 10 10 9 9 6 5 3 2 3 4 5 6 7 10 12 14 17 20 22 24 25 27 28 29 31 32 33 32 30 29 27 24 22 22 21 21 20 19 19 19 19 20 21 20 19 19 20 19 19 21 21 20 20 20 18 18 17 16 16 18 20 22 25 26 25 24 26 28 29 31 34 38 40 42 45 45 45 45 44 45 47
2 4 7 7 10 12 10 6 6 10 9 11 12 9 11 7 9 8 9 9 6 6 4 2 2 4 5 6 8 11 14 17 20 23 25 27 27 28 29 30 31 33 33 33 32 29 27 25 23 23 22 21 21 20 21 21 22 23 23 21 19 19 20 19 19 19 17 18 20 20 19 19 18 18 16 16 18 21 24 26 26 25 26 27 28 29 31 34 37 38 42 43 44 44 43 43 46
2 4 7 8 13 14 13 13 14 14 10 6 7 9 8 6 11 9 8 9 7 6 5 2 1 3 5 7 9 12 15 19 23 26 27 27 27 27 27 29 31 33 34 33 32 29 28 26 24 23 22 21 21 22 22 24 25 26 26 25 24 22 21 19 18 17 16 17 19 18 20 21 19 18 18 17 17 17 20 22 22 23 25 27 28 29 30 32 33 35 38 40 42 44 43 43 44
1 4 9 12 16 18 18 16 13 10 5 3 3 7 6 3 11 11 8 8 8 7 4 1 3 4 7 9 11 15 18 22 26 27 27 26 26 27 28 31 33 35 35 34 31 29 28 26 25 23 22 22 24 24 25 25 27 28 27 27 27 26 25 22 20 19 18 19 19 18 19 21 20 19 18 19 19 17 17 19 20 22 24 26 27 28 30 31 31 32 34 36 39 41 40 41 44
4 5 11 15 17 18 18 15 10 6 7 3 4 5 8 7 5 9 11 9 9 7 3 1 4 6 9 12 14 18 22 27 29 27 26 27 27 29 32 35 37 38 37 34 31 29 28 26 25 24 24 25 26 27 27 27 27 27 27 27 28 27 28 26 23 22 22 22 22 21 21 20 19 18 18 18 18 18 18 18 19 22 24 25 25 25 28 31 31 31 31 33 35 36 37 38 40
5 8 14 17 17 18 17 12 8 6 10 8 6 6 8 10 5 8 12 9 9 8 2 2 5 8 11 15 18 22 27 30 29 27 28 30 31 34 37 39 40 40 38 34 32 29 28 26 25 25 26 27 27 28 30 30 28 28 28 29 29 27 27 27 26 26 25 24 23 23 22 21 21 21 21 20 19 19 18 17 18 20 22 24 25 25 26 28 29 29 30 33 34 34 36 37 35
7 12 15 17 17 18 15 9 8 8 8 6 1 3 8 9 7 5 10 8 9 7 1 3 6 9 13 19 22 26 30 30 29 29 31 33 35 38 41 42 42 41 36 33 31 29 28 26 25 25 25 26 27 29 32 31 29 29 29 30 30 29 27 27 26 26 26 25 25 24 22 21 21 22 22 20 18 18 18 17 17 18 21 22 24 26 26 26 27 27 29 32 34 35 36 37 35
11 16 16 16 15 14 11 7 7 8 7 6 10 12 9 9 11 5 5 6 4 3 1 4 8 12 16 22 25 28 31 31 31 31 33 36 39 42 44 43 42 38 34 33 31 29 28 27 26 25 25 26 28 31 32 31 29 29 29 29 30 30 29 28 27 27 26 26 25 24 23 21 19 19 21 22 21 20 21 20 19 18 18 20 23 25 26 27 27 27 28 30 34 35 35 36 37
13 15 14 13 10 7 6 5 6 8 7 8 15 18 13 9 11 7 0 1 3 3 3 7 11 15 20 24 26 29 32 33 33 33 35 39 43 45 45 43 40 36 34 34 32 30 30 29 27 26 26 26 29 32 33 32 30 29 29 29 30 31 30 29 28 28 27 26 26 26 25 23 22 21 20 23 26 25 25 25 23 21 19 19 21 24 25 27 27 28 27 29 32 34 34 35 37
10 10 11 10 7 4 3 3 5 7 8 11 17 21 16 11 8 3 4 5 6 5 6 8 12 18 23 26 28 30 32 33 35 37 40 43 45 45 43 41 38 36 35 35 34 33 32 30 28 27 27 28 31 34 34 32 30 29 29 29 30 30 30 29 29 28 27 26 26 26 25 24 24 23 22 23 25 26 27 27 27 26 23 20 20 21 24 25 26 27 28 29 31 33 34 34 35
8 9 10 9 7 6 4 6 6 7 10 13 18 20 14 10 7 4 4 5 6 4 6 10 14 19 24 29 31 32 35 37 40 42 44 45 45 42 40 38 36 35 35 35 34 33 32 31 29 28 29 29 33 35 35 32 30 30 30 29 29 29 29 29 29 28 27 27 26 25 24 23 22 22 23 23 22 21 24 26 28 29 28 25 22 20 21 22 24 25 27 29 30 32 33 33 34
8 8 9 8 7 7 7 7 7 9 13 16 19 17 10 9 6 3 4 4 4 2 7 13 19 23 29 35 36 36 40 43 45 47 46 43 41 39 38 37 36 35 36 35 35 34 33 33 31 30 29 31 35 38 36 33 31 30 29 29 29 29 29 29 29 28 27 26 26 25 24 23 22 22 22 22 20 19 20 22 25 28 29 30 29 26 23 22 24 25 26 28 29 31 32 33 34
5 6 7 6 5 6 7 7 8 11 14 16 17 11 7 8 4 4 5 5 4 2 12 22 27 31 36 40 40 41 45 48 48 46 43 41 39 38 37 36 36 37 37 37 36 36 35 35 33 30 30 34 39 40 36 33 31 30 29 29 29 28 29 29 29 29 27 26 26 25 25 24 23 23 22 21 20 18 19 20 22 25 27 29 30 30 29 26 25 25 26 28 28 29 30 32 33
3 6 5 5 7 6 7 8 11 14 13 12 10 6 7 8 2 6 4 2 2 10 21 29 34 38 41 41 42 45 48 50 48 44 41 40 40 39 38 38 38 39 39 39 39 38 38 36 31 29 32 38 41 39 35 33 32 31 29 29 29 28 29 29 28 28 27 27 27 26 25 24 24 23 23 22 21 20 20 20 20 22 25 27 28 29 30 30 28 27 27 28 29 29 30 31 32
4 5 5 8 9 6 6 10 11 13 12 9 8 8 10 9 2 4 3 5 12 19 24 31 37 40 39 40 44 47 49 48 45 42 42 41 41 40 40 39 39 40 40 39 38 37 36 33 30 32 37 41 40 36 35 34 33 31 31 30 29 28 28 28 28 28 27 27 26 26 25 24 23 23 23 23 22 21 20 20 20 20 22 25 27 27 28 29 29 29 29 28 29 30 30 31 32
5 4 6 9 7 4 3 9 9 10 10 9 10 13 13 11 7 3 7 15 19 20 23 32 39 39 37 41 47 49 48 46 43 43 43 43 43 42 42 41 40 40 38 37 38 38 37 35 35 39 41 39 37 36 35 34 32 32 32 31 29 28 28 28 27 27 27 27 26 25 25 24 23 23 24 24 24 23 21 21 22 21 21 23 26 28 27 28 29 29 30 29 29 29 29 30 31
4 1 3 5 3 3 5 7 8 11 12 9 12 16 13 9 9 12 16 19 20 23 27 30 34 36 38 44 49 49 47 45 44 45 44 44 44 43 42 40 40 38 37 39 41 40 39 38 37 38 38 37 36 36 36 35 33 33 33 31 30 29 28 28 28 27 26 26 26 25 25 25 25 24 24 24 24 24 23 22 23 22 21 21 24 27 27 27 28 30 31 31 30 29 29 30 30
4 2 1 3 2 5 5 6 6 9 13 13 14 15 10 7 12 16 17 20 24 29 28 27 31 37 41 46 49 48 47 46 45 45 45 44 44 42 41 40 39 39 39 39 40 38 37 36 36 37 37 37 36 36 37 36 34 33 32 31 31 29 27 28 28 27 26 26 26 26 25 25 25 25 25 24 24 24 24 24 23 22 22 21 22 24 26 27 28 29 31 32 31 30 30 31 31
2 4 5 4 3 4 5 6 5 6 12 13 13 14 10 7 11 14 18 23 27 31 29 26 32 40 45 48 50 49 48 47 46 45 44 44 43 42 41 39 38 38 39 38 38 38 37 38 39 37 35 36 36 37 37 37 35 34 33 33 33 29 27 28 28 27 26 25 26 25 25 25 25 25 25 25 25 24 24 24 24 24 23 22 22 21 22 25 28 30 31 31 32 31 30 31 31
5 5 4 3 4 5 6 7 5 5 10 12 13 15 12 7 8 12 19 23 27 33 33 29 35 44 48 49 50 49 49 48 46 44 44 43 42 41 40 40 40 40 39 37 38 38 36 35 37 38 39 41 43 44 44 41 38 35 33 33 33 31 29 28 27 26 24 23 25 25 24 25 25 24 24 24 25 25 24 24 24 24 23 22 22 22 21 21 25 29 31 30 31 31 31 31 31
Wind_Direction
241 241 234 229 210 201 217 218 245 235 238 258 255 263 260 262 270 280 292 294 301 26 35 9 350 328 286 297 301 303 295 274 271 280 304 334 323 325 323 319 310 287 287 269 260 260 237 228 224 215 204 198 199 200 209 216 222 225 219 220 212 198 190 186 191 192 195 204 196 191 198 199 192 193 194 186 188 188 190 191 186 189 181 177 189 195 194 192 187 192 188 182 169 156 154 138 136
238 236 228 215 190 214 226 215 245 246 237 256 254 262 262 147 263 300 319 351 41 48 5 337 323 295 276 282 280 281 274 262 259 268 294 314 311 316 315 314 309 283 279 271 258 257 240 230 227 215 204 198 198 202 210 218 225 229 221 219 208 191 189 186 190 192 192 204 199 191 196 196 188 195 198 186 188 192 190 192 187 193 186 175 185 196 198 196 201 205 183 177 174 171 169 146 142
219 208 210 200 193 223 238 218 242 256 246 262 259 268 12 265 299 340 38 42 38 19 344 339 319 293 288 271 274 281 281 286 275 269 288 309 314 314 312 315 313 288 275 270 256 253 239 231 229 215 204 199 198 203 212 218 227 230 224 220 204 190 188 188 192 191 191 200 200 196 197 196 190 194 195 187 192 195 191 191 190 191 185 182 186 187 199 199 199 203 184 178 175 188 184 153 151
197 187 192 205 210 217 236 227 242 260 255 266 269 4 34 332 355 31 41 28 9 1 352 346 319 294 305 282 297 294 281 303 307 292 304 308 310 309 308 309 310 293 273 271 255 250 238 232 230 216 205 200 199 204 213 219 227 229 225 224 211 196 188 187 191 194 195 198 199 198 200 200 196 195 192 193 196 193 193 191 191 189 181 190 190 182 197 203 195 192 190 186 179 199 194 160 156
172 197 193 210 228 221 239 238 246 254 256 269 271 318 36 3 16 13 356 352 356 2 360 352 313 323 301 275 277 282 290 311 313 315 318 297 301 306 303 302 305 295 276 272 254 241 233 236 231 216 207 200 201 206 215 221 227 229 224 225 221 204 188 186 193 198 196 198 199 194 201 204 196 199 195 193 196 192 195 192 190 192 183 190 192 185 194 199 197 192 190 190 183 198 193 168 163
152 220 197 217 249 277 250 239 247 246 256 268 274 294 346 7 8 347 337 338 8 31 10 16 319 315 286 268 248 260 290 304 307 309 305 295 300 305 302 300 301 295 280 271 254 231 225 238 232 214 209 202 202 209 217 223 227 232 227 226 227 213 196 189 195 198 197 200 198 195 203 204 195 200 198 193 196 192 196 193 190 193 186 189 190 188 195 198 200 193 189 192 185 200 209 181 170
216 215 199 220 241 254 247 246 254 256 266 290 298 312 343 5 359 338 337 340 13 96 31 51 329 306 281 300 274 274 288 292 306 304 301 305 306 309 306 302 301 294 278 268 255 225 220 241 232 212 210 204 204 211 218 223 227 232 231 228 229 222 206 194 196 197 198 201 198 199 203 202 199 199 199 200 195 194 198 193 192 192 184 192 192 186 196 202 202 194 190 192 187 205 224 197 176
220 223 216 227 232 210 242 255 257 267 284 15 336 343 356 356 357 345 344 337 333 343 342 98 350 308 299 329 300 299 298 293 317 317 315 322 323 323 317 308 304 296 279 268 255 227 227 243 229 212 211 206 207 212 218 221 226 231 232 230 226 224 212 197 197 199 198 201 197 200 201 200 202 199 202 203 195 199 201 192 193 193 186 195 197 188 191 201 203 199 193 190 191 198 218 218 199
210 250 240 227 248 220 239 254 257 270 275 358 342 355 2 4 10 352 345 334 334 328 320 6 331 285 316 325 301 305 331 330 335 342 345 350 346 340 335 324 308 292 282 269 255 237 238 245 225 214 212 209 210 212 218 219 224 228 228 229 223 219 213 201 198 201 199 201 199 199 202 200 201 199 201 202 197 202 197 192 195 193 191 195 198 194 190 198 202 200 194 188 193 194 212 225 203
217 242 263 245 253 246 248 251 256 264 300 358 350 19 24 25 11 345 346 332 329 322 322 357 290 271 319 314 300 308 342 346 357 4 357 353 349 344 342 335 318 286 277 274 260 244 243 245 225 215 214 211 214 215 218 219 223 226 225 227 221 214 211 204 198 200 200 201 200 200 202 199 202 199 199 201 199 200 194 192 196 193 193 193 195 200 195 196 199 198 193 188 194 195 216 229 205
237 208 267 270 247 256 262 275 289 331 345 331 54 49 34 14 357 348 346 327 326 322 346 15 319 315 318 300 304 330 25 0 0 347 340 336 337 339 339 333 323 299 272 274 267 250 247 248 226 216 218 215 219 220 221 222 224 227 226 225 221 213 208 205 200 199 200 202 200 200 202 199 202 200 198 200 199 199 196 194 195 193 194 194 193 199 201 199 200 199 196 193 196 197 218 230 210
271 212 230 260 261 277 303 319 318 329 321 340 57 51 19 353 354 350 340 327 326 325 7 11 339 323 309 302 316 22 62 9 345 331 326 327 327 328 331 328 319 307 278 269 269 257 247 248 229 219 223 220 223 224 225 226 226 228 228 228 224 213 206 204 203 202 200 202 200 197 201 200 201 201 199 199 199 198 198 200 195 190 194 195 193 195 197 200 201 200 199 197 199 200 215 222 214
292 313 270 275 296 304 318 309 314 319 320 49 49 33 1 347 359 348 332 326 334 346 5 1 343 320 310 334 317 345 13 358 341 326 319 319 321 321 322 323 316 308 287 269 266 261 249 246 232 225 228 227 228 228 230 230 229 230 230 232 228 216 207 205 205 206 203 204 202 197 200 203 202 199 198 196 200 201 199 202 196 189 193 196 195 195 194 199 202 201 200 199 200 198 213 222 221
304 323 293 289 304 294 300 295 325 323 346 65 34 10 352 342 2 342 333 335 356 10 355 358 354 325 327 350 335 344 346 339 335 327 321 318 323 329 330 328 314 304 295 276 264 261 253 247 235 231 234 234 234 234 234 234 232 232 232 235 233 220 210 208 207 209 206 206 205 201 204 209 208 201 199 195 197 205 201 201 199 190 193 197 195 198 196 199 205 201 198 198 201 195 210 228 228
297 315 287 282 292 287 322 316 332 315 9 60 40 3 346 339 7 341 359 356 0 16 3 17 10 350 359 4 349 348 342 335 334 333 333 328 331 340 348 351 342 325 308 289 270 260 252 245 237 234 237 239 238 239 240 239 237 235 235 237 236 226 215 212 211 212 209 208 211 208 208 213 214 209 208 201 196 204 201 200 202 192 193 200 195 199 198 198 205 201 199 197 198 196 206 228 228
289 300 276 274 282 289 34 359 338 306 342 36 29 359 342 337 43 355 12 358 351 28 30 30 24 26 22 13 356 354 355 352 353 354 353 349 349 347 349 355 356 347 332 316 291 271 257 246 239 237 240 242 240 242 243 244 242 239 239 238 238 232 221 216 212 213 210 209 215 216 215 215 216 215 217 213 202 203 207 203 201 196 193 200 198 198 201 199 202 199 199 200 201 200 202 219 220
278 277 269 276 285 325 14 2 353 327 326 349 346 348 339 336 29 6 346 6 18 36 40 35 34 36 28 20 9 7 11 13 16 15 13 20 20 11 3 359 357 353 343 334 321 303 279 256 245 239 241 244 242 242 242 243 243 240 240 240 240 236 228 222 215 213 212 211 215 220 220 214 213 218 220 221 210 205 216 215 205 201 193 198 201 196 202 202 203 202 199 202 204 204 207 216 218
262 261 268 290 345 16 11 3 359 337 322 330 334 341 348 351 13 0 349 42 36 41 41 32 35 36 32 27 21 22 24 25 29 29 31 33 30 27 20 12 7 2 351 341 333 327 309 277 256 245 243 246 245 244 242 242 243 242 240 239 240 238 234 229 221 216 215 215 216 220 220 213 212 218 221 223 218 209 216 225 219 211 196 195 204 199 203 201 201 206 201 203 203 206 213 216 216
267 287 274 327 22 34 28 12 359 341 325 326 334 353 22 16 11 360 10 48 41 38 32 24 31 31 27 26 25 27 28 31 34 36 38 37 36 33 26 22 17 10 5 360 348 338 326 302 279 259 250 249 248 247 247 245 243 244 243 241 241 240 237 234 228 221 217 216 217 219 216 214 215 216 222 225 225 217 218 228 229 221 204 197 202 201 204 201 201 206 203 206 203 209 218 211 209
274 293 282 30 15 28 44 16 359 351 336 334 337 6 49 37 22 10 16 56 49 38 25 22 27 24 22 24 24 26 29 33 35 37 39 38 39 36 33 29 23 16 9 4 1 358 346 325 308 285 265 257 252 247 249 250 248 246 244 244 244 243 240 237 234 229 222 217 217 220 216 216 217 215 221 226 226 223 222 228 230 227 218 208 204 201 204 203 201 207 207 206 203 213 220 210 211
301 313 346 30 358 359 38 15 7 2 340 338 342 13 65 53 39 33 36 58 51 39 33 30 27 23 22 24 25 27 30 32 34 37 38 38 39 38 36 33 30 27 20 11 2 357 352 343 332 313 289 273 264 255 250 252 253 249 244 245 246 244 243 241 238 235 230 222 216 220 221 218 219 217 218 222 224 224 226 229 230 228 224 221 216 211 208 206 203 204 206 202 205 215 214 211 220
293 53 47 33 358 351 23 16 20 7 355 4 20 50 68 63 49 44 52 62 52 41 42 39 33 30 28 28 30 32 33 34 35 36 37 38 37 37 36 34 32 30 30 27 19 5 343 331 336 333 314 293 281 272 262 255 256 253 248 246 245 243 243 243 240 238 235 229 220 217 223 223 220 220 218 218 221 224 226 229 233 232 228 226 228 224 218 217 213 204 204 202 206 216 212 216 232
291 80 61 34 7 352 1 17 34 19 27 42 54 80 85 82 68 56 62 68 66 56 50 45 41 40 38 37 37 36 37 36 36 37 38 38 37 37 35 34 32 30 31 30 28 23 12 351 325 329 329 315 301 289 278 267 260 256 253 248 245 242 240 241 240 239 239 235 228 217 219 224 221 220 219 217 220 224 226 230 234 235 233 230 232 233 225 225 225 213 209 207 209 220 221 225 239
326 79 46 26 15 356 344 25 66 46 46 60 81 101 93 88 85 72 69 69 67 62 54 54 51 47 44 42 41 40 39 38 38 38 38 38 38 38 37 36 34 31 31 29 28 26 23 17 1 340 322 318 316 307 293 279 269 261 258 253 250 247 243 242 239 241 241 237 234 226 218 221 223 223 221 217 221 227 227 229 234 235 235 233 233 236 231 227 229 224 215 210 215 228 234 236 243
48 64 40 45 58 21 21 118 102 71 65 86 97 99 97 97 95 78 70 65 60 59 58 60 55 51 47 44 42 41 40 38 38 36 36 37 35 35 35 34 32 31 30 27 26 24 22 20 16 9 352 329 315 312 306 294 283 271 263 259 254 251 249 248 244 242 241 237 236 232 224 220 221 223 223 220 223 229 229 229 232 234 235 234 233 235 235 230 229 227 220 219 226 234 240 243 247
71 85 146 117 83 48 61 107 115 91 79 106 111 108 115 113 104 77 64 54 53 58 62 63 57 52 47 45 43 40 39 37 35 34 33 33 30 30 29 29 28 28 26 24 23 22 19 17 16 15 10 1 346 324 313 300 293 287 276 267 260 254 252 251 249 246 244 242 239 236 233 228 223 222 222 220 225 232 233 231 232 233 234 234 234 235 236 234 233 231 229 232 236 240 243 246 249
115 169 165 141 98 73 84 85 103 113 93 110 128 116 115 110 143 88 64 44 51 62 64 61 56 53 49 46 43 39 37 34 32 31 30 30 28 25 23 23 23 22 22 20 19 17 16 16 15 12 11 9 4 355 340 318 301 294 286 279 269 261 258 254 252 250 248 245 243 241 240 238 232 227 224 222 229 236 237 235 234 234 234 234 236 236 236 236 238 237 238 240 242 244 245 247 249
161 171 174 185 176 80 85 66 39 132 104 109 149 129 113 81 64 89 54 26 62 66 67 61 54 51 47 45 42 39 36 33 31 29 29 27 25 23 19 18 17 17 17 16 15 13 10 9 11 11 8 6 4 3 359 351 335 309 292 286 278 271 265 258 255 253 251 247 245 246 244 242 240 235 231 231 235 239 240 239 237 236 235 236 237 237 236 237 238 237 240 242 243 245 244 246 249
182 186 196 195 206 212 80 70 17 266 94 88 179 175 141 101 80 85 53 45 101 79 68 59 52 49 43 43 41 39 36 32 31 29 28 25 23 21 18 16 13 12 13 12 11 10 6 3 4 5 3 3 1 359 359 358 354 342 321 300 287 279 274 265 259 255 254 251 247 246 245 243 242 239 237 237 237 238 239 240 240 239 238 238 238 238 237 237 237 236 237 240 242 243 244 245 248
188 208 236 200 207 213 99 61 351 285 101 50 238 248 147 111 93 88 63 68 116 94 73 59 55 50 42 41 38 38 35 31 30 27 24 22 19 17 15 14 10 7 7 7 7 6 4 359 359 358 357 357 357 355 354 353 353 352 344 329 308 289 280 273 265 259 257 255 249 246 244 242 241 239 238 237 238 237 239 240 241 242 241 240 239 239 238 238 238 237 238 240 241 243 244 246 248
179 232 269 3 313 4 92 74 352 356 62 357 300 285 139 121 109 93 75 88 117 99 78 62 53 48 41 41 36 36 33 29 27 24 21 18 15 12 11 9 6 3 1 2 2 2 0 356 354 354 352 351 350 350 349 348 346 345 345 340 331 315 296 281 272 266 262 258 253 248 246 244 242 244 245 240 239 240 240 241 243 245 244 242 241 241 241 240 240 239 241 242 242 243 244 246 249
37 4 328 6 351 344 38 117 38 8 342 332 322 306 131 128 121 104 95 113 130 109 84 64 51 46 38 36 32 30 29 26 24 21 18 15 13 10 7 6 2 358 356 356 357 356 355 351 350 349 348 347 346 345 343 342 341 337 335 333 332 331 321 304 286 274 267 262 256 252 249 248 247 248 248 244 246 248 247 246 245 246 247 245 244 244 244 243 242 242 244 245 245 245 245 246 248
26 13 355 356 343 328 339 117 89 4 338 330 331 309 310 130 127 116 112 127 148 130 90 64 50 44 36 33 29 25 22 20 19 16 15 12 10 8 5 2 358 354 354 354 351 350 349 346 345 344 344 343 342 340 338 338 337 334 329 325 323 326 324 318 306 292 279 269 260 255 251 250 250 249 245 243 247 251 250 249 248 247 248 247 247 247 246 246 246 245 245 246 246 246 246 246 247
359 2 355 347 335 323 333 7 45 5 338 321 306 288 314 120 135 136 134 142 157 143 95 67 51 44 38 33 26 22 20 16 14 11 10 9 8 6 2 356 352 349 351 352 348 344 343 342 339 338 339 338 337 337 334 333 334 332 328 323 318 315 313 309 306 304 296 284 271 262 255 251 250 249 247 243 244 246 246 248 247 246 247 249 249 249 249 248 248 247 246 246 247 246 247 246 246
331 341 338 337 331 321 330 337 5 8 335 314 305 281 236 136 153 155 150 158 159 143 105 75 52 45 39 32 25 19 17 14 11 7 6 6 4 2 357 353 351 349 348 346 345 342 339 337 333 331 332 332 332 333 330 329 330 329 326 323 319 313 309 303 297 299 299 292 282 272 265 260 254 251 249 247 245 244 243 243 243 243 244 248 250 249 249 249 248 247 247 247 247 247 246 245 244
313 314 308 317 321 321 329 332 3 14 330 307 306 294 275 177 172 166 159 167 163 152 121 87 56 47 37 28 24 16 12 11 6 3 1 0 358 356 354 351 350 349 347 344 340 338 336 334 329 325 325 325 326 327 325 326 327 325 323 322 320 314 308 303 298 295 289 281 278 276 274 268 262 255 250 247 247 245 242 241 240 239 238 242 247 248 248 247 246 246 247 247 246 244 242 241 241
300 295 302 313 318 325 326 326 16 36 335 303 303 297 281 226 182 171 168 176 174 161 137 95 54 44 36 23 19 11 8 4 358 357 355 354 352 352 351 349 348 347 346 344 339 334 331 329 326 321 319 318 320 321 320 323 324 322 320 319 316 311 307 305 300 294 287 281 277 278 280 277 269 263 256 251 249 246 243 240 239 237 234 235 242 246 246 246 246 247 246 245 244 242 239 238 238
287 299 322 324 326 325 318 318 42 29 331 296 301 295 272 236 185 176 176 185 181 156 136 98 59 42 35 20 15 6 360 355 351 351 349 348 347 347 347 346 345 344 342 339 335 331 327 324 320 316 315 313 313 314 314 318 319 316 314 313 310 305 302 303 295 289 290 286 279 274 275 277 275 271 264 256 250 246 241 239 237 236 234 233 237 242 244 245 245 245 243 240 240 241 240 239 237
265 319 337 329 331 326 315 311 164 301 289 289 301 298 281 247 181 181 186 186 175 150 134 98 66 33 25 11 5 358 353 351 348 346 344 343 342 341 343 342 341 340 338 336 331 327 323 319 315 311 311 309 307 307 307 311 313 313 311 307 305 301 297 296 289 288 291 288 285 280 271 269 269 272 271 261 254 247 241 238 235 234 233 234 236 237 239 242 242 242 241 239 237 238 238 237 237
245 357 348 326 329 329 313 307 299 292 283 287 295 289 281 245 174 187 189 179 169 162 161 121 75 31 21 3 358 354 349 347 344 342 339 337 337 338 340 340 340 337 335 332 329 325 320 316 311 309 308 307 305 305 304 305 308 311 311 307 304 300 296 292 287 286 282 279 285 288 282 274 264 262 267 266 261 254 247 241 235 233 232 231 233 232 235 240 241 241 242 240 237 236 234 234 237
82 46 358 322 317 317 301 302 306 297 279 259 276 282 276 195 179 194 182 178 181 174 178 155 64 17 5 354 352 351 346 342 338 336 336 335 334 335 337 337 337 335 332 329 325 321 317 312 309 307 306 307 308 307 305 303 303 305 307 307 306 303 300 295 288 282 274 271 276 280 284 285 277 264 258 258 262 261 256 248 241 236 232 230 231 233 238 242 242 241 241 240 238 236 234 234 236
22 64 357 319 307 308 301 304 310 305 296 166 207 289 303 196 196 194 168 181 189 174 172 122 15 3 357 350 346 343 341 338 333 331 332 334 333 333 333 334 333 331 328 325 321 317 313 309 306 305 305 307 310 310 309 306 303 302 303 304 305 303 299 294 288 281 276 275 275 274 276 279 282 279 267 256 255 257 257 255 250 245 238 234 233 237 242 243 242 241 238 236 238 237 234 233 236
326 17 341 308 300 302 299 307 310 301 313 284 203 261 300 307 258 188 170 186 184 170 164 58 8 1 355 346 342 338 334 333 333 332 332 332 332 332 330 330 330 328 325 323 318 314 311 307 304 303 304 306 309 311 312 310 306 303 301 301 302 299 295 291 286 283 281 278 275 274 272 270 273 275 273 265 256 253 252 252 251 248 245 240 235 236 241 243 242 238 234 234 237 236 233 231 233
325 344 323 303 301 300 296 303 289 279 306 287 216 228 278 307 315 163 168 190 183 175 178 41 10 360 354 346 343 339 336 335 334 334 332 331 329 330 329 327 327 325 323 320 317 313 310 307 303 302 303 304 308 313 314 312 308 305 301 299 297 294 291 288 286 284 282 279 275 273 271 270 268 266 269 269 263 257 253 251 249 247 247 245 240 237 239 243 243 238 235 235 236 236 235 231 228
323 321 307 296 292 287 287 287 268 284 306 292 290 302 285 300 313 161 165 199 197 184 176 34 7 356 353 348 344 342 340 337 334 330 328 326 325 326 325 324 323 323 321 320 317 314 312 309 305 303 302 304 310 315 315 311 305 303 299 297 294 291 289 287 286 284 282 279 277 274 271 268 268 266 266 264 260 255 252 251 250 247 248 248 247 244 240 241 242 238 235 235 236 237 238 234 226
315 308 298 290 278 266 268 265 268 292 290 298 347 345 319 304 305 291 186 211 211 167 100 14 359 357 354 348 344 341 340 336 331 326 323 323 323 322 321 321 321 321 321 320 318 315 312 310 306 303 302 305 311 316 316 310 303 300 297 294 292 290 289 287 284 283 281 279 277 275 272 268 266 265 262 260 257 254 250 248 247 247 248 248 248 248 245 243 243 239 235 235 239 241 240 236 229
304 310 312 307 295 268 246 246 283 305 295 314 339 337 327 306 299 314 70 141 73 69 12 354 350 347 343 340 338 337 338 335 329 325 324 323 321 321 320 321 321 321 321 320 318 316 312 310 306 303 301 305 312 316 315 309 302 299 296 293 292 290 289 287 284 282 280 279 277 276 274 271 270 271 265 261 260 258 255 250 247 247 247 247 247 246 246 246 246 245 240 236 238 243 243 239 234
308 331 332 325 326 315 257 280 319 317 309 325 332 329 323 299 297 14 108 123 97 66 5 353 347 342 338 337 335 335 336 336 332 329 327 323 320 320 322 322 322 321 321 320 318 316 312 309 306 302 300 305 312 316 315 309 302 298 295 293 292 290 289 286 283 282 281 280 278 277 275 272 274 276 273 268 264 261 258 254 251 248 246 248 249 248 247 245 245 247 244 240 238 241 243 240 237
338 350 343 342 346 347 335 332 341 320 304 314 323 323 313 289 311 48 119 139 114 73 14 1 348 341 339 337 334 335 338 337 334 330 325 323 322 321 322 322 322 321 320 320 318 316 313 310 307 301 300 306 312 315 314 309 302 298 296 293 291 289 288 286 284 282 281 280 279 277 275 272 272 273 273 274 272 265 259 256 253 251 248 247 248 248 246 241 240 240 242 244 245 244 243 241 237
357 357 353 356 348 341 331 325 328 309 299 307 314 313 298 290 318 60 99 94 103 68 6 357 347 342 341 339 335 336 338 334 330 327 324 324 324 324 323 322 322 321 320 319 318 316 312 310 306 300 299 306 313 314 312 308 302 298 296 294 292 289 287 286 284 283 282 281 279 277 276 274 272 270 269 270 271 269 264 259 255 252 250 248 247 247 246 243 240 238 238 242 247 248 247 246 243
358 4 354 348 344 329 311 317 319 305 299 306 308 302 299 313 340 91 85 76 100 25 350 348 346 341 339 338 334 334 334 331 328 326 325 325 324 323 322 320 320 320 320 319 318 316 313 310 305 299 299 308 313 314 311 307 303 299 297 295 292 289 287 285 284 283 282 281 279 277 276 275 273 272 269 267 266 265 264 262 259 256 253 251 248 247 247 247 247 245 242 241 242 243 243 245 246
349 354 351 346 338 312 285 291 298 300 298 302 304 292 301 317 27 102 105 121 320 329 337 341 341 337 334 334 333 330 329 328 327 326 325 325 323 322 321 319 319 319 319 319 318 317 314 310 304 300 303 311 313 312 310 307 304 300 297 296 293 290 286 284 283 282 282 281 280 278 277 275 274 273 270 268 265 261 258 257 258 258 258 256 254 251 248 247 249 250 250 247 244 241 239 239 242
332 342 353 330 307 282 289 296 297 302 296 293 303 297 301 311 332 128 169 284 323 332 334 334 335 336 335 334 332 329 328 327 326 326 325 324 322 320 319 319 319 319 319 318 318 318 317 314 309 308 310 313 313 311 309 306 303 301 298 297 294 290 287 284 283 282 283 283 281 278 277 276 274 272 270 268 266 263 259 255 254 253 254 256 257 256 254 251 250 250 252 252 251 248 243 241 240
339 351 352 325 281 223 300 309 306 308 296 293 305 302 305 312 312 332 319 319 330 336 334 332 333 335 333 331 331 328 327 326 324 323 323 323 323 321 319 319 319 320 321 321 322 323 322 318 315 313 312 312 311 310 309 306 303 301 299 297 293 290 288 286 284 283 283 283 281 279 277 276 276 274 272 270 267 266 263 260 259 255 252 252 253 254 254 254 252 250 251 252 254 252 247 246 245
41 101 343 349 312 295 328 318 311 309 302 301 308 305 304 307 320 332 326 323 331 334 333 333 333 334 331 330 330 328 327 326 324 323 323 324 325 323 322 322 322 324 325 325 325 322 320 318 315 313 312 310 310 310 309 307 304 301 298 295 292 291 290 287 284 283 283 281 280 279 278 276 276 275 273 271 269 267 265 263 262 260 257 254 253 252 251 252 252 251 250 250 252 252 248 248 248
113 175 1 33 339 310 317 304 295 306 306 306 313 309 302 319 330 326 322 325 332 334 333 332 332 332 330 328 327 327 327 326 323 323 324 325 325 323 324 326 326 327 326 325 323 321 319 318 316 314 313 312 311 311 309 307 304 301 298 294 293 292 291 289 286 283 282 281 280 279 279 278 277 275 273 270 268 266 265 264 261 259 257 256 255 255 252 251 251 251 251 250 251 251 251 253 252
341 327 352 13 337 314 306 291 282 303 306 306 312 303 295 325 329 322 330 333 332 331 331 332 334 331 326 324 326 327 326 325 324 324 325 325 323 323 326 328 327 326 324 323 322 321 320 318 318 319 318 316 315 314 312 309 305 302 298 295 294 295 293 288 285 282 280 281 282 281 279 279 278 276 273 269 268 266 264 264 262 259 256 253 254 255 254 253 253 253 254 253 252 250 251 254 254
326 332 351 7 358 342 322 308 301 309 302 300 305 296 290 322 334 332 339 334 329 332 333 334 333 328 323 323 326 326 325 325 325 325 325 324 322 324 328 328 325 324 323 323 322 322 322 322 325 327 325 322 321 319 315 311 307 302 299 296 293 293 292 286 284 284 282 280 282 283 282 280 279 276 274 271 268 266 264 264 262 259 257 255 253 252 251 253 255 256 256 255 254 251 250 251 252